IST,Max TemperatureF,Mean TemperatureF,Min TemperatureF,Max Dew PointF,MeanDew PointF,Min DewpointF,Max Humidity, Mean Humidity, Min Humidity, Max Sea Level PressureIn, Mean Sea Level PressureIn, Min Sea Level PressureIn, Max VisibilityMiles, Mean VisibilityMiles, Min VisibilityMiles, Max Wind SpeedMPH, Mean Wind SpeedMPH, Max Gust SpeedMPH,PrecipitationIn, CloudCover, Events, WindDirDegrees
2012-10-1,95,82,70,77,73,68,94,71,41,29.83,29.76,29.71,3,2,1,7,1,,0.00,1,,312
2012-10-2,95,82,70,75,74,72,94,72,49,29.80,29.72,29.65,4,2,1,4,1,,0.00,2,,275
2012-10-3,95,84,72,78,75,73,94,73,51,29.73,29.65,29.56,4,2,1,5,1,,0.00,3,,293
2012-10-4,92,82,72,77,72,63,94,71,28,29.68,29.62,29.56,3,2,1,12,2,,0.00,3,,300
2012-10-5,93,80,67,72,68,64,88,64,38,29.77,29.69,29.65,4,3,1,13,4,,0.00,,,293
2012-10-6,93,78,63,72,68,64,94,68,46,29.84,29.79,29.74,4,3,1,6,3,,0.00,,,284
2012-10-7,95,80,64,73,69,64,94,69,46,29.89,29.83,29.77,3,2,1,4,1,,0.00,1,,320
2012-10-8,91,76,62,70,67,63,94,68,43,29.88,29.79,29.53,3,2,1,9,2,,0.00,2,,312
2012-10-9,91,77,63,70,67,64,94,69,43,29.83,29.76,29.38,4,3,1,6,2,,0.00,1,,279
2012-10-10,86,77,68,73,72,66,100,81,66,29.89,29.82,29.77,4,3,1,6,4,,0.00,3,,105
2012-10-11,90,78,67,73,70,68,94,72,49,29.87,29.80,29.74,4,3,1,7,2,,0.00,2,,305
2012-10-12,91,80,68,70,66,63,94,66,33,29.86,29.79,29.74,3,3,2,7,2,,0.00,,,308
2012-10-13,89,76,63,72,67,63,94,69,43,29.87,29.81,29.77,3,2,1,7,2,,0.00,,,323
2012-10-14,91,78,64,70,68,64,94,68,43,29.91,29.84,29.80,4,2,1,6,1,,0.00,1,,309
2012-10-15,91,78,66,73,68,63,94,68,38,29.95,29.88,29.83,3,2,1,5,1,,0.00,,,318
2012-10-16,91,78,65,74,71,68,94,72,44,30.01,29.94,29.89,3,2,1,5,1,,0.00,1,,352
2012-10-17,89,76,64,72,66,64,94,70,43,30.03,29.94,29.89,4,2,1,9,3,,0.00,,,321
2012-10-18,89,75,61,70,66,63,94,70,40,30.01,29.92,29.86,4,2,1,6,1,,0.00,1,,313
2012-10-19,90,76,63,67,64,63,94,68,40,29.99,29.92,29.89,4,2,1,7,1,,0.00,1,,307
2012-10-20,89,74,59,68,61,55,94,64,31,30.01,29.95,29.92,4,3,1,7,1,,0.00,1,,319
2012-10-21,89,73,57,66,62,57,94,65,33,30.04,29.96,29.92,4,3,1,6,1,,0.00,1,,287
2012-10-22,89,76,62,66,62,55,94,65,33,30.01,29.95,29.92,4,2,1,8,2,,0.00,,Fog,303
2012-10-23,87,73,59,68,61,59,88,63,38,30.01,29.92,29.86,3,2,1,7,2,,0.00,,,290
2012-10-24,86,74,62,66,62,57,88,61,28,29.96,29.87,29.83,3,2,1,7,3,,0.00,3,Rain,21
2012-10-25,86,72,57,64,59,54,88,62,23,29.94,29.85,29.77,3,2,1,7,2,,0.00,1,,311
2012-10-26,85,70,55,59,57,54,94,57,25,29.98,29.88,29.86,3,2,1,4,1,,0.00,1,,320
2012-10-27,84,70,55,63,58,54,94,63,37,30.01,29.92,29.89,2,2,1,6,1,,0.00,1,Fog,305
2012-10-28,86,70,55,61,58,54,94,63,33,30.01,29.93,29.89,3,2,1,7,2,,0.00,,Fog,291
2012-10-29,87,72,57,63,57,54,94,61,35,29.98,29.91,29.86,3,2,1,8,2,,0.00,,,328
2012-10-30,86,70,54,63,58,52,94,65,31,29.99,29.90,29.83,2,1,1,4,1,,0.00,,,297
2012-10-31,88,71,54,65,59,55,94,68,33,29.98,29.91,29.86,2,1,0,4,1,,0.00,4,Fog,311